RYR1UN LIBD-LBSF

Flight info

Callsign RYR1UN
Flight time 0h 58m
Altitude 37000
Route VURKE DCT CRAYE DCT PINUK DCT PETAK DCT MAVAR DCT GOSTI DCT SIN T215 VELBA T343 MOREK
Aircraft B738/M-SDE2E3FGHIRWXY/LB1

Departure

Time 2026-05-09 16:43
Airport Bari Karol Wojtyła International Airport (LIBD)

Arrival

Time 2026-05-09 17:41
Airport Sofia Airport (LBSF)
Time Latitude Longitude Altitude Speed Heading
2026-05-09 16:20 41.13610 16.76166 151 ft 0 kts 25°
2026-05-09 16:37 41.13617 16.76170 151 ft 3 kts 25°
2026-05-09 16:37 41.13613 16.76190 151 ft 3 kts 155°
2026-05-09 16:37 41.13592 16.76192 151 ft 3 kts 168°
2026-05-09 16:38 41.13572 16.76192 152 ft 3 kts 196°
2026-05-09 16:38 41.13558 16.76169 152 ft 4 kts 252°
2026-05-09 16:38 41.13556 16.76128 154 ft 5 kts 278°
2026-05-09 16:38 41.13585 16.76081 154 ft 9 kts 322°
2026-05-09 16:39 41.13634 16.76014 155 ft 11 kts 295°
2026-05-09 16:39 41.13625 16.75918 159 ft 11 kts 250°
2026-05-09 16:39 41.13600 16.75826 163 ft 11 kts 250°
2026-05-09 16:39 41.13571 16.75720 164 ft 15 kts 250°
2026-05-09 16:40 41.13526 16.75566 167 ft 20 kts 249°
2026-05-09 16:40 41.13474 16.75385 169 ft 22 kts 250°
2026-05-09 16:42 41.13262 16.74116 205 ft 16 kts 356°
2026-05-09 16:42 41.13333 16.74232 197 ft 21 kts 69°
2026-05-09 16:42 41.13466 16.74697 183 ft 91 kts 69°
2026-05-09 16:42 41.13770 16.75768 164 ft 154 kts 69°
2026-05-09 16:43 41.14168 16.77205 671 ft 166 kts 69°
2026-05-09 16:43 41.14560 16.78603 1701 ft 158 kts 68°
2026-05-09 16:43 41.14955 16.79985 2528 ft 163 kts 68°
2026-05-09 16:43 41.15364 16.81416 3292 ft 166 kts 68°
2026-05-09 16:44 41.15786 16.82882 3922 ft 182 kts 68°
2026-05-09 16:44 41.16264 16.84571 4275 ft 205 kts 68°
2026-05-09 16:44 41.16792 16.86444 4529 ft 228 kts 69°
2026-05-09 16:44 41.17347 16.88478 5028 ft 241 kts 69°
2026-05-09 16:45 41.17943 16.90674 5430 ft 261 kts 69°
2026-05-09 16:45 41.18558 16.92947 6198 ft 268 kts 69°
2026-05-09 16:45 41.19203 16.95335 7026 ft 274 kts 68°
2026-05-09 16:45 41.19853 16.97742 7776 ft 281 kts 69°
2026-05-09 16:46 41.20249 16.99207 8230 ft 284 kts 69°
2026-05-09 16:47 41.20547 17.00313 8580 ft 287 kts 68°
2026-05-09 16:47 41.21230 17.02839 9314 ft 296 kts 69°
2026-05-09 16:48 41.21931 17.05452 9984 ft 306 kts 69°
2026-05-09 16:48 41.22654 17.08150 10648 ft 312 kts 69°
2026-05-09 16:48 41.23386 17.10880 11463 ft 314 kts 69°
2026-05-09 16:48 41.24119 17.13611 12323 ft 315 kts 69°
2026-05-09 16:49 41.24857 17.16362 13075 ft 319 kts 69°
2026-05-09 16:49 41.25616 17.19186 13698 ft 329 kts 69°
2026-05-09 16:49 41.26396 17.22089 14251 ft 338 kts 69°
2026-05-09 16:50 41.27993 17.28043 15645 ft 343 kts 69°
2026-05-09 16:50 41.28795 17.31038 16357 ft 346 kts 69°
2026-05-09 16:50 41.29609 17.34081 16933 ft 353 kts 69°
2026-05-09 16:50 41.30445 17.37204 17425 ft 364 kts 69°
2026-05-09 16:51 41.31301 17.40439 17750 ft 379 kts 69°
2026-05-09 16:51 41.32182 17.43806 18132 ft 390 kts 69°
2026-05-09 16:51 41.33089 17.47233 18676 ft 395 kts 69°
2026-05-09 16:51 41.34005 17.50684 19313 ft 396 kts 69°
2026-05-09 16:52 41.34925 17.54151 19910 ft 399 kts 69°
2026-05-09 16:52 41.35841 17.57606 20456 ft 403 kts 69°
2026-05-09 16:52 41.36787 17.61182 21009 ft 406 kts 69°
2026-05-09 16:52 41.37727 17.64748 21573 ft 410 kts 69°
2026-05-09 16:53 41.38672 17.68340 22112 ft 413 kts 69°
2026-05-09 16:53 41.39623 17.71959 22651 ft 416 kts 69°
2026-05-09 16:53 41.40581 17.75614 23174 ft 420 kts 69°
2026-05-09 16:53 41.41545 17.79298 23699 ft 423 kts 69°
2026-05-09 16:54 41.42514 17.83005 24147 ft 425 kts 69°
2026-05-09 16:54 41.43490 17.86744 24586 ft 428 kts 69°
2026-05-09 16:54 41.44456 17.90452 25011 ft 431 kts 69°
2026-05-09 16:54 41.45442 17.94241 25445 ft 434 kts 69°
2026-05-09 16:55 41.46431 17.98049 25879 ft 436 kts 70°
2026-05-09 16:55 41.47423 18.01871 26290 ft 438 kts 70°
2026-05-09 16:55 41.48421 18.05724 26711 ft 441 kts 70°
2026-05-09 16:55 41.49503 18.09569 27115 ft 443 kts 64°
2026-05-09 16:56 41.51007 18.13147 27515 ft 443 kts 54°
2026-05-09 16:56 41.52896 18.16386 27898 ft 443 kts 44°
2026-05-09 16:56 41.55107 18.19266 28275 ft 445 kts 41°
2026-05-09 16:56 41.57384 18.22083 28641 ft 448 kts 40°
2026-05-09 16:57 41.59686 18.24909 28994 ft 451 kts 41°
2026-05-09 16:57 41.61991 18.27761 29345 ft 453 kts 41°
2026-05-09 16:57 41.64300 18.30647 29694 ft 456 kts 41°
2026-05-09 16:57 41.66611 18.33563 30049 ft 458 kts 42°
2026-05-09 16:58 41.68928 18.36502 30338 ft 460 kts 42°
2026-05-09 16:58 41.71254 18.39462 30632 ft 462 kts 42°
2026-05-09 16:58 41.73589 18.42436 30924 ft 464 kts 42°
2026-05-09 16:58 41.75925 18.45415 31227 ft 465 kts 42°
2026-05-09 16:59 41.78268 18.48403 31521 ft 466 kts 42°
2026-05-09 16:59 41.80621 18.51407 31797 ft 468 kts 42°
2026-05-09 16:59 41.82956 18.54455 32087 ft 469 kts 47°
2026-05-09 16:59 41.84737 18.58110 32399 ft 470 kts 67°
2026-05-09 17:00 41.85665 18.62284 32829 ft 467 kts 82°
2026-05-09 17:00 41.85767 18.66608 33212 ft 463 kts 98°
2026-05-09 17:00 41.85293 18.70864 33547 ft 461 kts 101°
2026-05-09 17:00 41.84729 18.75103 33880 ft 461 kts 102°
2026-05-09 17:01 41.84149 18.79320 34185 ft 460 kts 102°
2026-05-09 17:01 41.83578 18.83546 34427 ft 461 kts 101°
2026-05-09 17:01 41.83026 18.87772 34674 ft 461 kts 101°
2026-05-09 17:01 41.82487 18.92007 34898 ft 461 kts 100°
2026-05-09 17:02 41.81955 18.96259 35121 ft 462 kts 101°
2026-05-09 17:02 41.81426 19.00509 35295 ft 464 kts 100°
2026-05-09 17:02 41.80893 19.04784 35472 ft 465 kts 100°
2026-05-09 17:02 41.80359 19.09056 35695 ft 465 kts 100°
2026-05-09 17:03 41.79821 19.13329 35914 ft 466 kts 100°
2026-05-09 17:04 41.76445 19.43569 37078 ft 473 kts 96°
2026-05-09 17:05 41.76115 19.47957 37071 ft 475 kts 96°
2026-05-09 17:05 41.75432 19.56729 37079 ft 473 kts 96°
2026-05-09 17:06 41.74712 19.65468 37084 ft 471 kts 96°
2026-05-09 17:06 41.74095 19.72754 37085 ft 469 kts 96°
2026-05-09 17:07 41.73354 19.81426 37084 ft 468 kts 96°
2026-05-09 17:07 41.72613 19.90027 37084 ft 468 kts 96°
2026-05-09 17:08 41.71863 19.98677 37083 ft 468 kts 96°
2026-05-09 17:08 41.70725 20.11655 37089 ft 469 kts 97°
2026-05-09 17:09 41.69957 20.20317 37080 ft 470 kts 97°
2026-05-09 17:09 41.69180 20.29007 37094 ft 471 kts 96°
2026-05-09 17:10 41.68390 20.37765 37090 ft 472 kts 97°
2026-05-09 17:10 41.67598 20.46485 37088 ft 473 kts 96°
2026-05-09 17:11 41.67695 20.55235 37083 ft 471 kts 79°
2026-05-09 17:11 41.69493 20.63616 37085 ft 468 kts 69°
2026-05-09 17:12 41.71615 20.71858 37078 ft 469 kts 69°
2026-05-09 17:12 41.73694 20.80145 37075 ft 470 kts 70°
2026-05-09 17:13 41.75717 20.88402 37089 ft 470 kts 70°
2026-05-09 17:13 41.77746 20.96738 37086 ft 471 kts 70°
2026-05-09 17:14 41.79774 21.05081 37078 ft 472 kts 70°
2026-05-09 17:14 41.81661 21.13503 37039 ft 472 kts 76°
2026-05-09 17:15 41.82885 21.22128 37062 ft 472 kts 79°
2026-05-09 17:15 41.83995 21.30791 37062 ft 471 kts 78°
2026-05-09 17:17 41.88671 21.65274 37056 ft 469 kts 78°
2026-05-09 17:18 41.89827 21.73841 37039 ft 464 kts 78°
2026-05-09 17:18 41.90963 21.82341 36842 ft 466 kts 73°
2026-05-09 17:19 41.91542 21.86661 36619 ft 473 kts 73°
2026-05-09 17:19 41.92133 21.91058 36267 ft 485 kts 73°
2026-05-09 17:19 41.92737 21.95550 35887 ft 496 kts 73°
2026-05-09 17:19 41.93351 22.00167 35411 ft 503 kts 73°
2026-05-09 17:20 41.93958 22.04796 34990 ft 502 kts 73°
2026-05-09 17:20 41.94556 22.09396 34540 ft 500 kts 73°
2026-05-09 17:20 41.95154 22.13992 34113 ft 497 kts 72°
2026-05-09 17:20 41.95748 22.18556 33628 ft 496 kts 72°
2026-05-09 17:21 41.96343 22.23116 33188 ft 494 kts 72°
2026-05-09 17:21 41.96931 22.27632 32760 ft 492 kts 72°
2026-05-09 17:21 41.97519 22.32170 32332 ft 490 kts 73°
2026-05-09 17:21 41.98031 22.36721 31916 ft 496 kts 78°
2026-05-09 17:22 41.98125 22.41404 31406 ft 507 kts 86°
2026-05-09 17:22 41.97991 22.46137 30979 ft 507 kts 87°
2026-05-09 17:22 41.97805 22.50870 30561 ft 505 kts 88°
2026-05-09 17:22 41.97622 22.55563 30124 ft 502 kts 88°
2026-05-09 17:23 41.97463 22.60224 29677 ft 499 kts 88°
2026-05-09 17:23 41.97383 22.64853 29184 ft 490 kts 82°
2026-05-09 17:23 41.97834 22.69280 28546 ft 470 kts 70°
2026-05-09 17:23 41.98854 22.73384 27730 ft 457 kts 61°
2026-05-09 17:25 42.07329 22.90359 23618 ft 428 kts 51°
2026-05-09 17:25 42.09048 22.93589 23004 ft 419 kts 51°
2026-05-09 17:25 42.10709 22.96731 22563 ft 406 kts 51°
2026-05-09 17:25 42.12344 22.99826 22180 ft 408 kts 51°
2026-05-09 17:26 42.14004 23.02965 21776 ft 413 kts 51°
2026-05-09 17:26 42.15810 23.05914 21316 ft 402 kts 43°
2026-05-09 17:26 42.17763 23.08558 20658 ft 396 kts 41°
2026-05-09 17:26 42.19735 23.11118 19929 ft 392 kts 41°
2026-05-09 17:27 42.21684 23.13633 19378 ft 384 kts 41°
2026-05-09 17:27 42.23579 23.16098 18928 ft 374 kts 41°
2026-05-09 17:27 42.25428 23.18526 18354 ft 369 kts 42°
2026-05-09 17:27 42.27250 23.20937 17646 ft 365 kts 42°
2026-05-09 17:28 42.28971 23.23228 17095 ft 359 kts 42°
2026-05-09 17:28 42.30697 23.25536 16957 ft 340 kts 42°
2026-05-09 17:28 42.32355 23.27758 16536 ft 333 kts 42°
2026-05-09 17:28 42.33995 23.29955 15920 ft 332 kts 42°
2026-05-09 17:29 42.35629 23.32145 15419 ft 328 kts 42°
2026-05-09 17:29 42.37217 23.34278 15118 ft 317 kts 42°
2026-05-09 17:29 42.38775 23.36372 14654 ft 315 kts 42°
2026-05-09 17:29 42.40327 23.38457 14128 ft 314 kts 42°
2026-05-09 17:30 42.41868 23.40531 13625 ft 312 kts 42°
2026-05-09 17:30 42.43398 23.42590 13122 ft 309 kts 43°
2026-05-09 17:30 42.44910 23.44628 12673 ft 304 kts 43°
2026-05-09 17:30 42.46365 23.46593 12581 ft 287 kts 43°
2026-05-09 17:31 42.47754 23.48469 12303 ft 279 kts 43°
2026-05-09 17:31 42.49120 23.50313 11877 ft 276 kts 43°
2026-05-09 17:32 42.54357 23.57396 10323 ft 246 kts 43°
2026-05-09 17:32 42.55552 23.59016 9931 ft 240 kts 43°
2026-05-09 17:32 42.56712 23.60587 9557 ft 233 kts 43°
2026-05-09 17:33 42.57848 23.62127 9100 ft 229 kts 43°
2026-05-09 17:33 42.58982 23.63689 8430 ft 236 kts 47°
2026-05-09 17:33 42.59622 23.65752 7771 ft 246 kts 86°
2026-05-09 17:33 42.59417 23.68021 7461 ft 242 kts 110°
2026-05-09 17:34 42.58790 23.70110 7141 ft 237 kts 101°
2026-05-09 17:35 42.60920 23.80410 5168 ft 199 kts 351°
2026-05-09 17:35 42.62184 23.79737 4858 ft 196 kts 322°
2026-05-09 17:36 42.63060 23.78329 4535 ft 196 kts 302°
2026-05-09 17:36 42.63738 23.76714 4222 ft 198 kts 300°
2026-05-09 17:36 42.64393 23.75090 4111 ft 197 kts 300°
2026-05-09 17:36 42.65062 23.73437 4083 ft 200 kts 300°
2026-05-09 17:37 42.65728 23.71795 4072 ft 197 kts 300°
2026-05-09 17:37 42.66350 23.70139 4079 ft 199 kts 290°
2026-05-09 17:37 42.66666 23.68300 4084 ft 198 kts 284°
2026-05-09 17:37 42.66966 23.66515 4072 ft 187 kts 285°
2026-05-09 17:38 42.67263 23.64834 4072 ft 182 kts 285°
2026-05-09 17:38 42.67558 23.63198 4101 ft 177 kts 286°
2026-05-09 17:38 42.67856 23.61559 4098 ft 180 kts 285°
2026-05-09 17:39 42.68454 23.58296 4011 ft 179 kts 286°
2026-05-09 17:39 42.68754 23.56602 3801 ft 187 kts 278°
2026-05-09 17:39 42.68851 23.54848 3554 ft 187 kts 276°
2026-05-09 17:39 42.68965 23.53087 3252 ft 185 kts 276°
2026-05-09 17:40 42.69066 23.51373 2899 ft 179 kts 275°
2026-05-09 17:40 42.69167 23.49759 2725 ft 164 kts 276°
2026-05-09 17:40 42.69260 23.48258 2466 ft 152 kts 276°
2026-05-09 17:40 42.69341 23.46854 2218 ft 152 kts 277°
2026-05-09 17:41 42.69429 23.45397 2010 ft 157 kts 277°
2026-05-09 17:41 42.69518 23.43918 1799 ft 157 kts 277°
2026-05-09 17:41 42.69604 23.42516 1751 ft 128 kts 275°
2026-05-09 17:41 42.69637 23.41809 1744 ft 34 kts 264°
2026-05-09 17:42 42.69578 23.41555 1748 ft 26 kts 243°
2026-05-09 17:42 42.69507 23.41342 1752 ft 24 kts 246°
2026-05-09 17:42 42.69423 23.41205 1752 ft 18 kts 190°
2026-05-09 17:42 42.69304 23.41174 1752 ft 17 kts 191°
2026-05-09 17:43 42.69187 23.41142 1746 ft 15 kts 191°
2026-05-09 17:43 42.69118 23.41059 1746 ft 14 kts 251°
2026-05-09 17:43 42.69075 23.40984 1749 ft 9 kts 168°
2026-05-09 17:43 42.69020 23.41009 1747 ft 6 kts 162°
2026-05-09 17:44 42.69004 23.41016 1747 ft 0 kts 162°
2026-05-09 17:53 42.69005 23.41016 1752 ft 0 kts 162°